This is the latest recevied weather packets stored in our database for station/object CX5ACA-13. If no packets are shown the sender has not sent any weather packets the latest 10 day(s).
| Time | Temp. | Humidity | Pressure | Rain* | Wind** | Luminosity | Snow |
|---|---|---|---|---|---|---|---|
| 1777734243 | 14.44° C | 66% | 1023.5 hPa | 0 mm | - | 222 W/m² | - |
| 1777733939 | 15° C | 63% | 1023.5 hPa | 0 mm | - | 156 W/m² | - |
| 1777733635 | 15° C | 66% | 1023.6 hPa | 0 mm | - | 118 W/m² | - |
| 1777733332 | 15° C | 64% | 1023.5 hPa | 0 mm | - | 555 W/m² | - |
| 1777733029 | 15° C | 65% | 1023.5 hPa | 0 mm | - | 554 W/m² | - |
| 1777732725 | 15° C | 65% | 1023.5 hPa | 0 mm | - | 566 W/m² | - |
| 1777732422 | 15° C | 62% | 1023.3 hPa | 0 mm | - | 316 W/m² | - |
| 1777732120 | 15° C | 64% | 1023.4 hPa | 0 mm | - | 124 W/m² | - |
| 1777731817 | 15° C | 63% | 1023.3 hPa | 0 mm | - | 175 W/m² | - |
| 1777731513 | 15° C | 63% | 1023.7 hPa | 0 mm | - | 152 W/m² | - |
| 1777731212 | 15° C | 64% | 1023.3 hPa | 0 mm | - | 116 W/m² | - |
| 1777730909 | 15° C | 63% | 1023.4 hPa | 0 mm | - | 431 W/m² | - |
| 1777730607 | 15° C | 65% | 1023.5 hPa | 0 mm | - | 547 W/m² | - |
| 1777730303 | 15.56° C | 63% | 1023.4 hPa | 0 mm | - | 444 W/m² | - |
| 1777730000 | 15° C | 65% | 1023.1 hPa | 0 mm | - | 469 W/m² | - |
| 1777729695 | 15° C | 65% | 1023.2 hPa | 0 mm | - | 499 W/m² | - |
| 1777729393 | 15° C | 64% | 1023.4 hPa | 0 mm | - | 447 W/m² | - |
| 1777729089 | 15° C | 64% | 1023.1 hPa | 0 mm | - | 113 W/m² | - |
| 1777728786 | 15° C | 63% | 1022.9 hPa | 0 mm | - | 150 W/m² | - |
| 1777728482 | 15° C | 63% | 1022.8 hPa | 0 mm | - | 305 W/m² | - |
| 1777728180 | 15.56° C | 64% | 1022.9 hPa | 0 mm | - | 107 W/m² | - |
| 1777727877 | 15° C | 64% | 1022.8 hPa | 0 mm | - | 114 W/m² | - |
| 1777727574 | 15° C | 65% | 1022.9 hPa | 0 mm | - | 100 W/m² | - |
| 1777727271 | 15° C | 63% | 1022.7 hPa | 0 mm | - | 346 W/m² | - |
| 1777726968 | 15° C | 63% | 1022.6 hPa | 0 mm | - | 350 W/m² | - |
* Rain latest hour (hover to see other rain measurements)
** Current wind speed in m/s (hover to see current wind gust speed)